When you browse on this site, cookies collect data to enhance your experience and personalize the content and advertising you see.
Visit our Privacy Policy to learn more. By continuing to use the site, you agree to this use of cookies and data.
  • In Latvia
  • List of Countries
  • For 7 days
  • Water Temperature
  • Weather Map
  • Weather Widgets
  • user-avatar
    Login

    Hourly Weather Guarenas

    Today, 30 March, Monday

    Time Temperature Precipitation Wind Pressure Humidity
    00:00 +22°C° 0.1 mm 1 mps 723 mmHg 97%
    01:00 +21°C° 0.1 mm 1 mps 722 mmHg 97%
    02:00 +21°C° 0.1 mm 1 mps 722 mmHg 97%
    03:00 +22°C° 0.1 mm 1 mps 722 mmHg 97%
    04:00 +22°C° 0.1 mm 1 mps 721 mmHg 97%
    05:00 +21°C° 0.1 mm 2 mps 721 mmHg 96%
    06:00 +23°C° 0.1 mm 2 mps 722 mmHg 93%
    07:00 +24°C° 0.1 mm 2 mps 722 mmHg 90%
    08:00 +24°C° 0.1 mm 2 mps 723 mmHg 87%
    09:00 +26°C° 0 mm 3 mps 723 mmHg 74%
    10:00 +28°C° 0 mm 3 mps 723 mmHg 61%
    11:00 +30°C° 0 mm 3 mps 724 mmHg 48%
    12:00 +32°C° 0 mm 4 mps 723 mmHg 50%
    13:00 +32°C° 0 mm 4 mps 722 mmHg 51%
    14:00 +32°C° 0 mm 4 mps 722 mmHg 53%
    15:00 +30°C° 0 mm 4 mps 721 mmHg 54%
    16:00 +29°C° 0 mm 4 mps 721 mmHg 56%
    17:00 +28°C° 0 mm 4 mps 720 mmHg 57%
    18:00 +26°C° 0 mm 3 mps 720 mmHg 69%
    19:00 +24°C° 0 mm 2 mps 720 mmHg 81%
    20:00 +21°C° 0 mm 2 mps 721 mmHg 93%
    21:00 +21°C° 0 mm 2 mps 721 mmHg 94%
    22:00 +20°C° 0 mm 2 mps 721 mmHg 95%
    23:00 +21°C° 0 mm 1 mps 722 mmHg 96%

    Tomorrow, 31 March, Tuesday

    Time Temperature Precipitation Wind Pressure Humidity
    00:00 +21°C° 0 mm 1 mps 721 mmHg 96%
    01:00 +21°C° 0 mm 1 mps 721 mmHg 96%
    02:00 +20°C° 0 mm 2 mps 720 mmHg 95%
    03:00 +20°C° 0 mm 2 mps 720 mmHg 96%
    04:00 +20°C° 0 mm 2 mps 720 mmHg 96%
    05:00 +20°C° 0 mm 2 mps 720 mmHg 96%
    06:00 +21°C° 0.1 mm 2 mps 721 mmHg 93%
    07:00 +23°C° 0.1 mm 2 mps 721 mmHg 91%
    08:00 +24°C° 0.1 mm 2 mps 722 mmHg 88%
    09:00 +26°C° 0 mm 2 mps 722 mmHg 77%
    10:00 +28°C° 0 mm 2 mps 722 mmHg 65%
    11:00 +30°C° 0 mm 2 mps 723 mmHg 53%
    12:00 +31°C° 0 mm 3 mps 722 mmHg 50%
    13:00 +33°C° 0 mm 3 mps 721 mmHg 47%
    14:00 +34°C° 0 mm 3 mps 720 mmHg 45%
    15:00 +33°C° 0 mm 3 mps 720 mmHg 47%
    16:00 +31°C° 0 mm 3 mps 719 mmHg 48%
    17:00 +30°C° 0 mm 3 mps 719 mmHg 50%
    18:00 +27°C° 0 mm 2 mps 719 mmHg 61%
    19:00 +25°C° 0 mm 2 mps 719 mmHg 72%
    20:00 +23°C° 0 mm 2 mps 720 mmHg 83%
    21:00 +22°C° 0 mm 1 mps 720 mmHg 85%
    22:00 +22°C° 0 mm 1 mps 720 mmHg 88%
    23:00 +21°C° 0 mm 1 mps 721 mmHg 90%

    Day after tomorrow, 1 April, Wednesday

    Time Temperature Precipitation Wind Pressure Humidity
    00:00 +21°C° 0 mm 1 mps 720 mmHg 90%
    01:00 +21°C° 0 mm 1 mps 720 mmHg 90%
    02:00 +20°C° 0 mm 1 mps 719 mmHg 90%
    03:00 +20°C° 0 mm 1 mps 719 mmHg 90%
    04:00 +20°C° 0 mm 1 mps 719 mmHg 90%
    05:00 +20°C° 0 mm 1 mps 719 mmHg 90%
    06:00 +21°C° 0 mm 1 mps 720 mmHg 83%
    07:00 +23°C° 0 mm 2 mps 720 mmHg 77%
    08:00 +24°C° 0 mm 2 mps 720 mmHg 71%
    09:00 +27°C° 0 mm 2 mps 721 mmHg 62%
    10:00 +29°C° 0 mm 2 mps 721 mmHg 53%
    11:00 +33°C° 0 mm 3 mps 722 mmHg 45%
    12:00 +34°C° 0 mm 3 mps 721 mmHg 43%
    13:00 +35°C° 0 mm 3 mps 720 mmHg 42%
    14:00 +36°C° 0 mm 3 mps 720 mmHg 41%
    15:00 +34°C° 0 mm 3 mps 719 mmHg 46%
    16:00 +33°C° 0 mm 3 mps 719 mmHg 52%
    17:00 +30°C° 0 mm 3 mps 718 mmHg 57%
    18:00 +28°C° 0 mm 2 mps 718 mmHg 68%
    19:00 +26°C° 0 mm 2 mps 719 mmHg 78%
    20:00 +23°C° 0 mm 1 mps 719 mmHg 88%
    21:00 +23°C° 0 mm 1 mps 719 mmHg 90%
    22:00 +22°C° 0 mm 1 mps 720 mmHg 91%
    23:00 +22°C° 0 mm 1 mps 720 mmHg 93%

    2 April, Thursday

    Time Temperature Precipitation Wind Pressure Humidity
    00:00 +22°C° 0 mm 1 mps 720 mmHg 92%
    01:00 +22°C° 0 mm 1 mps 720 mmHg 91%
    02:00 +22°C° 0 mm 1 mps 719 mmHg 90%
    03:00 +22°C° 0 mm 1 mps 719 mmHg 90%
    04:00 +21°C° 0 mm 1 mps 720 mmHg 90%
    05:00 +21°C° 0 mm 1 mps 720 mmHg 90%
    06:00 +23°C° 0 mm 1 mps 720 mmHg 85%
    07:00 +24°C° 0 mm 1 mps 721 mmHg 80%
    08:00 +25°C° 0 mm 2 mps 721 mmHg 75%
    09:00 +28°C° 0 mm 2 mps 722 mmHg 64%
    10:00 +31°C° 0 mm 2 mps 722 mmHg 53%
    11:00 +35°C° 0 mm 2 mps 723 mmHg 42%
    12:00 +35°C° 0 mm 2 mps 722 mmHg 42%
    13:00 +35°C° 0 mm 2 mps 721 mmHg 43%
    14:00 +36°C° 0 mm 2 mps 720 mmHg 43%
    15:00 +34°C° 0 mm 2 mps 720 mmHg 47%
    16:00 +32°C° 0 mm 1 mps 719 mmHg 51%
    17:00 +31°C° 0 mm 1 mps 719 mmHg 56%
    18:00 +29°C° 0 mm 1 mps 719 mmHg 65%
    19:00 +27°C° 0 mm 1 mps 719 mmHg 75%
    20:00 +25°C° 0 mm 1 mps 719 mmHg 84%
    21:00 +24°C° 0 mm 1 mps 720 mmHg 86%
    22:00 +24°C° 0 mm 1 mps 720 mmHg 87%
    23:00 +23°C° 0 mm 1 mps 721 mmHg 89%

    3 April, Friday

    Time Temperature Precipitation Wind Pressure Humidity
    00:00 +23°C° 0 mm 1 mps 720 mmHg 89%
    01:00 +23°C° 0 mm 1 mps 720 mmHg 88%
    02:00 +23°C° 0 mm 1 mps 720 mmHg 88%
    03:00 +23°C° 0 mm 1 mps 720 mmHg 87%
    04:00 +23°C° 0 mm 1 mps 720 mmHg 86%
    05:00 +23°C° 0 mm 1 mps 720 mmHg 85%
    06:00 +24°C° 0 mm 1 mps 720 mmHg 80%
    07:00 +26°C° 0 mm 1 mps 721 mmHg 76%
    08:00 +27°C° 0 mm 1 mps 722 mmHg 71%
    09:00 +30°C° 0.1 mm 2 mps 722 mmHg 63%
    10:00 +32°C° 0.1 mm 2 mps 722 mmHg 56%
    11:00 +36°C° 0.1 mm 2 mps 722 mmHg 48%
    12:00 +34°C° 0.4 mm 1 mps 722 mmHg 51%
    13:00 +33°C° 0.4 mm 1 mps 721 mmHg 54%
    14:00 +33°C° 0.4 mm 1 mps 720 mmHg 57%
    15:00 +33°C° 0.3 mm 1 mps 720 mmHg 58%
    16:00 +32°C° 0.3 mm 1 mps 719 mmHg 59%
    17:00 +32°C° 0.3 mm 1 mps 719 mmHg 60%
    18:00 +30°C° 0.4 mm 1 mps 719 mmHg 69%
    19:00 +28°C° 0.4 mm 1 mps 719 mmHg 77%
    20:00 +26°C° 0.4 mm 1 mps 719 mmHg 86%
    21:00 +26°C° 0.2 mm 1 mps 720 mmHg 88%
    22:00 +25°C° 0.2 mm 1 mps 720 mmHg 90%
    23:00 +25°C° 0.2 mm 1 mps 720 mmHg 93%

    4 April, Saturday

    Time Temperature Precipitation Wind Pressure Humidity
    00:00 +24°C° 0.1 mm 1 mps 720 mmHg 93%
    01:00 +24°C° 0.1 mm 1 mps 720 mmHg 93%
    02:00 +24°C° 0.1 mm 1 mps 720 mmHg 94%
    03:00 +24°C° 0.2 mm 1 mps 720 mmHg 93%
    04:00 +24°C° 0.2 mm 1 mps 720 mmHg 93%
    05:00 +24°C° 0.2 mm 1 mps 720 mmHg 93%
    06:00 +25°C° 0 mm 1 mps 720 mmHg 89%
    07:00 +26°C° 0 mm 1 mps 721 mmHg 85%
    08:00 +27°C° 0 mm 1 mps 721 mmHg 81%
    09:00 +29°C° 0.1 mm 1 mps 722 mmHg 72%
    10:00 +32°C° 0.1 mm 1 mps 722 mmHg 62%
    11:00 +35°C° 0.1 mm 1 mps 722 mmHg 52%
    12:00 +34°C° 0.7 mm 1 mps 721 mmHg 53%
    13:00 +34°C° 0.7 mm 1 mps 721 mmHg 55%
    14:00 +34°C° 0.7 mm 1 mps 720 mmHg 57%
    15:00 +33°C° 0.7 mm 1 mps 719 mmHg 59%
    16:00 +32°C° 0.7 mm 1 mps 719 mmHg 62%
    17:00 +32°C° 0.7 mm 1 mps 718 mmHg 64%
    18:00 +30°C° 0.4 mm 1 mps 719 mmHg 73%
    19:00 +28°C° 0.4 mm 1 mps 719 mmHg 81%
    20:00 +26°C° 0.4 mm 1 mps 719 mmHg 90%
    21:00 +25°C° 0 mm 1 mps 720 mmHg 92%
    22:00 +25°C° 0 mm 1 mps 720 mmHg 94%
    23:00 +25°C° 0 mm 1 mps 721 mmHg 95%
    Show more